Temperature
13 13 13 13 13 13 13 13 13 13 12 12 11 11 11 11 11 10 10 11 11 10 10 10 10 11 10 10 10 10 10 10 10 10 10 10 9 9
13 13 13 13 13 13 12 12 12 13 12 12 11 11 11 11 11 10 10 11 11 10 10 10 10 10 10 10 10 10 10 10 10 10 10 9 9 9
13 13 13 13 13 12 12 12 12 12 12 11 11 11 10 10 10 10 10 10 10 10 10 10 10 10 10 10 10 10 10 10 9 9 9 9 9 9
13 13 13 13 13 12 12 12 12 12 12 11 11 10 10 10 10 10 10 10 10 10 10 10 10 10 10 10 9 9 9 9 9 9 9 9 9 8
13 13 13 13 13 12 12 12 12 12 12 11 11 10 10 10 10 10 10 9 9 9 9 9 9 9 9 9 9 9 9 9 9 9 9 9 8 8
13 13 13 13 12 12 12 12 12 12 11 11 11 10 10 10 10 10 9 9 9 9 9 9 9 9 9 9 9 9 9 9 9 9 8 8 8 8
13 13 12 12 12 12 12 12 11 11 11 11 10 10 10 10 10 9 9 9 9 9 9 9 9 9 9 9 9 9 8 8 8 8 8 8 8 8
12 12 12 12 12 12 12 12 11 11 11 11 10 10 10 10 10 9 9 9 9 9 9 9 9 8 8 8 8 9 9 8 8 8 8 8 8 8
12 12 12 12 12 12 12 12 11 11 11 11 10 10 10 10 10 9 9 9 9 9 9 8 8 8 8 8 8 8 8 8 8 8 8 8 8 8
12 12 11 11 11 11 11 11 11 11 11 10 10 10 10 10 10 9 9 9 8 8 8 8 8 8 8 8 8 8 8 8 8 8 8 8 8 7
11 11 11 11 11 11 11 11 11 11 11 10 10 10 10 10 9 9 9 9 8 8 8 8 8 8 8 8 8 8 8 8 8 8 8 7 7 7
11 11 11 11 11 11 10 10 10 10 10 10 10 10 9 9 9 9 9 8 8 8 8 8 7 7 7 8 8 8 8 8 8 8 7 7 7 7
10 10 11 11 10 10 10 10 10 10 10 9 9 9 9 9 9 9 9 8 8 8 8 8 7 7 7 7 7 7 7 7 7 7 7 7 7 6
10 10 10 10 10 10 10 10 10 10 9 9 9 9 9 9 9 8 8 8 8 8 8 8 7 7 7 6 6 7 7 7 7 7 7 7 6 6
10 10 10 10 10 10 10 10 9 9 9 9 8 8 8 8 8 8 8 8 8 8 8 7 7 7 7 6 6 6 6 7 7 6 6 6 6 6
9 9 9 9 9 9 9 9 9 9 8 8 8 8 8 8 8 8 8 8 7 7 7 7 7 7 6 6 6 6 6 6 6 6 6 6 5 5
9 9 9 8 8 9 9 9 9 8 8 8 8 8 8 8 8 8 7 7 7 7 7 7 7 6 6 6 6 6 6 6 6 6 5 5 5 5
9 8 8 8 8 8 8 8 8 8 8 8 8 7 7 7 7 7 7 7 7 7 6 6 6 6 6 6 6 6 6 6 6 5 5 5 5 5
8 8 8 8 8 8 8 8 8 8 8 8 7 7 7 7 7 7 7 7 6 6 6 6 6 6 6 6 6 6 6 6 5 5 5 5 5 5
8 8 8 8 7 7 7 7 7 8 7 7 7 7 7 7 6 6 6 6 6 6 6 6 6 6 6 6 5 6 6 5 5 5 5 4 4 4
8 7 7 7 7 7 7 7 7 7 7 7 7 7 7 6 6 6 6 6 6 6 6 6 6 6 6 5 5 5 5 5 5 5 4 4 4 4
7 7 7 7 7 7 7 7 7 7 7 7 7 6 6 6 6 6 6 6 6 6 6 6 6 5 5 5 5 5 5 5 5 4 4 4 4 3
7 7 7 7 7 7 7 7 7 6 6 6 6 6 6 6 6 6 5 5 5 5 5 5 5 5 5 5 5 5 5 4 4 4 4 4 4 4
Wind_Speed
3 3 3 2 3 3 3 3 3 2 2 1 1 1 1 2 2 3 4 7 6 7 7 8 8 9 9 8 8 8 9 9 9 9 8 9 8 8
2 3 3 3 3 3 3 3 3 3 2 1 1 2 2 2 3 3 5 7 6 6 6 6 7 7 8 8 8 8 9 9 9 9 9 9 7 7
4 4 4 3 3 3 3 3 3 2 2 1 1 2 3 2 3 3 3 3 5 6 5 5 6 6 6 7 8 7 8 8 8 7 7 7 7 6
4 3 3 3 4 3 3 3 2 2 3 3 2 2 3 3 3 3 2 2 3 6 5 5 5 4 5 5 6 6 6 6 6 6 5 5 5 5
4 4 4 4 4 3 4 3 2 2 2 3 3 2 2 3 3 2 2 1 2 4 4 4 4 4 4 4 4 4 4 4 4 4 4 4 4 3
4 4 4 4 4 4 4 4 3 3 3 3 3 3 3 3 3 3 2 2 1 2 2 3 4 4 3 3 3 3 3 3 3 3 2 2 2 2
3 3 2 1 1 2 2 3 3 3 4 4 4 3 3 3 4 3 3 3 2 2 2 2 3 3 4 4 4 3 3 2 2 2 1 1 0 1
3 3 2 3 3 3 2 2 2 4 4 4 4 4 4 4 4 4 4 3 3 3 3 3 3 3 3 3 4 5 5 4 3 3 3 2 2 1
3 3 2 2 3 4 5 6 4 3 4 5 4 4 4 4 5 5 5 4 3 2 3 3 3 3 3 3 5 6 5 5 5 4 4 4 4 3
3 3 3 3 3 3 4 4 4 4 5 5 4 4 3 3 5 5 5 4 3 3 4 3 3 3 3 4 7 7 7 7 6 6 5 5 6 6
2 2 3 3 2 3 4 4 4 3 3 4 1 1 2 2 4 4 5 5 4 4 4 3 3 3 4 4 6 9 9 9 8 7 7 7 7 8
2 2 1 1 2 3 4 5 5 4 4 4 4 4 5 6 8 7 6 5 4 4 4 4 4 3 3 4 4 6 7 9 10 10 9 8 8 8
2 2 2 3 3 3 5 4 4 4 4 4 4 4 4 4 6 7 6 6 5 4 4 5 4 4 4 3 3 4 5 5 7 9 10 10 10 8
3 3 2 3 3 4 4 2 3 4 4 4 4 4 4 4 4 6 6 7 6 5 5 6 4 5 5 5 4 4 4 5 6 6 6 9 11 12
3 1 2 4 4 4 5 5 5 5 4 5 5 4 4 4 4 4 5 6 6 6 7 8 6 5 6 6 5 4 4 5 6 6 6 6 6 7
4 3 4 4 5 4 4 5 5 4 5 5 5 4 4 4 4 4 5 5 5 5 6 8 8 7 7 7 6 6 5 4 5 6 6 6 7 8
4 4 4 4 4 4 4 4 4 5 5 5 5 5 5 5 5 4 5 5 6 6 5 5 7 8 8 7 7 7 7 6 6 5 6 6 7 8
4 5 5 5 6 6 6 5 5 5 5 5 5 5 5 5 5 5 5 6 7 7 6 5 5 5 5 6 8 9 8 7 6 6 6 7 8 7
5 5 5 5 5 5 6 6 6 6 6 6 6 6 6 6 6 6 6 6 7 7 6 6 6 7 8 8 7 10 9 7 6 6 7 8 8 7
6 6 6 6 5 6 6 6 5 5 6 6 6 6 6 6 7 7 7 7 7 7 6 6 7 8 9 8 7 6 11 9 7 8 7 7 7 6
6 6 6 6 6 6 6 6 6 6 7 7 7 7 7 7 7 7 7 8 8 7 8 8 7 8 7 5 6 7 6 11 10 8 7 7 7 7
6 7 6 6 6 6 6 6 7 7 7 7 7 7 7 7 8 9 8 8 8 8 9 7 5 6 6 8 9 8 7 6 9 11 9 8 6 6
7 7 7 7 7 6 7 7 8 7 7 7 7 7 7 8 8 8 8 8 8 8 8 7 6 6 7 8 8 7 8 6 5 6 7 10 13 13
Wind_Direction
239 240 239 234 233 227 221 224 238 242 222 189 167 135 124 94 101 119 101 96 90 83 75 69 67 65 63 61 70 76 79 81 81 81 83 84 85 84
237 245 241 240 228 223 222 229 247 252 240 188 174 159 134 133 115 113 100 108 100 92 85 79 77 75 73 72 70 76 81 84 83 79 78 77 80 83
224 229 234 235 224 220 220 221 232 237 209 204 157 158 164 161 140 131 122 122 110 106 99 93 89 85 83 82 78 76 79 82 82 79 75 72 69 71
229 226 227 220 221 220 220 221 221 226 205 189 180 182 184 178 164 158 147 134 122 113 111 103 100 97 96 91 88 81 78 78 78 75 73 71 68 67
235 235 231 219 219 211 214 218 216 203 189 186 182 174 184 180 172 167 171 161 153 139 142 137 127 119 113 112 107 98 95 92 85 77 72 68 61 58
236 242 238 229 228 216 214 212 204 193 188 187 182 183 179 183 192 189 185 185 187 158 144 147 152 159 157 148 139 131 128 124 111 101 83 65 57 49
227 235 238 229 302 233 223 214 205 199 190 191 190 188 190 186 202 202 197 196 196 195 191 190 182 190 186 188 193 191 183 178 170 160 149 126 87 345
221 220 209 197 188 181 183 195 214 210 206 203 204 204 208 204 199 200 201 206 215 203 216 216 207 214 209 199 180 187 198 204 208 207 207 218 242 272
228 217 216 214 209 207 189 186 195 216 227 224 221 226 223 211 203 205 208 215 228 198 208 230 220 227 221 194 174 189 204 214 219 224 230 233 240 252
218 215 216 216 215 213 200 195 201 210 215 222 227 230 226 208 206 210 207 214 228 205 211 238 227 237 232 212 184 200 214 219 225 230 234 237 239 244
223 223 225 219 178 219 208 202 200 203 186 196 216 185 147 175 199 199 196 203 219 217 205 234 237 241 240 227 200 198 211 217 223 230 235 237 239 242
214 219 223 230 188 235 222 219 219 215 205 196 202 199 199 188 197 210 208 215 222 220 198 215 226 227 240 223 215 210 214 217 221 225 231 235 241 245
223 225 211 167 195 234 255 240 236 237 221 216 213 213 209 205 207 217 218 225 228 232 201 205 225 228 240 243 228 222 223 225 222 225 225 228 232 242
233 230 207 175 212 234 241 226 229 237 227 222 220 218 216 216 216 216 220 223 234 239 217 214 231 234 241 249 253 228 228 236 236 235 230 218 223 231
241 234 217 204 216 223 210 212 220 227 224 225 227 230 228 226 216 214 219 221 231 233 229 225 230 235 242 251 254 249 247 243 235 239 237 232 229 230
230 199 202 219 229 228 217 220 230 233 231 232 233 232 225 221 220 218 219 215 223 232 228 227 233 236 241 247 251 250 246 241 234 236 238 241 241 238
222 226 228 227 230 231 233 231 227 225 227 230 231 230 228 227 227 223 228 226 229 234 232 228 228 233 243 250 247 247 246 247 243 238 238 243 244 240
215 227 230 232 234 235 235 234 231 229 230 231 233 233 232 232 231 228 226 231 237 239 237 227 215 223 238 246 240 247 246 246 245 238 237 246 251 246
222 234 236 237 241 243 242 241 240 236 233 233 234 235 235 237 235 233 231 234 238 240 238 228 219 224 239 251 236 216 237 244 242 241 240 243 251 253
234 239 241 241 244 245 244 245 246 242 235 234 236 237 236 236 236 237 235 236 239 242 242 232 227 229 239 255 263 242 219 233 237 240 243 246 254 260
233 239 242 243 243 244 245 244 244 244 239 234 235 236 236 237 239 242 242 238 241 243 243 242 238 234 245 253 256 252 236 224 235 247 247 245 252 254
238 240 242 244 243 244 245 244 244 245 243 239 237 235 234 236 239 241 243 241 240 243 249 250 237 224 228 238 247 254 252 236 229 236 246 249 249 251
241 242 242 243 243 243 244 244 245 246 244 242 240 238 235 237 240 240 242 244 245 245 247 246 238 230 233 237 246 252 253 247 243 239 244 239 241 251
Height
1552 1553 1553 1553 1552 1552 1553 1553 1554 1553 1553 1553 1552 1551 1551 1550 1549 1549 1549 1548 1547 1547 1546 1546 1545 1545 1544 1543 1543 1543 1543 1543 1543 1543 1543 1543 1543 1542
1550 1550 1550 1551 1550 1550 1550 1551 1551 1552 1551 1551 1551 1550 1549 1549 1548 1548 1548 1547 1547 1546 1546 1545 1545 1544 1544 1544 1543 1543 1543 1543 1543 1543 1543 1543 1543 1542
1548 1548 1548 1548 1548 1548 1548 1548 1549 1549 1549 1549 1549 1548 1548 1548 1547 1547 1547 1547 1546 1546 1545 1545 1544 1544 1544 1543 1543 1543 1543 1543 1543 1543 1543 1543 1542 1542
1546 1546 1546 1546 1546 1546 1546 1546 1546 1547 1547 1546 1547 1547 1547 1546 1546 1546 1546 1546 1546 1545 1544 1544 1544 1543 1543 1543 1543 1543 1543 1543 1543 1543 1542 1542 1542 1542
1544 1544 1544 1544 1544 1544 1544 1544 1544 1544 1544 1545 1545 1545 1545 1545 1545 1545 1545 1545 1545 1544 1544 1543 1543 1543 1542 1542 1542 1542 1542 1542 1542 1542 1541 1541 1541 1541
1541 1541 1541 1541 1541 1542 1542 1542 1542 1542 1542 1542 1542 1543 1543 1543 1543 1544 1544 1544 1543 1543 1543 1542 1542 1542 1542 1541 1541 1541 1541 1541 1540 1540 1540 1540 1539 1539
1538 1538 1538 1538 1538 1539 1539 1539 1540 1540 1540 1540 1540 1540 1541 1541 1541 1541 1542 1542 1542 1542 1542 1542 1541 1541 1541 1540 1540 1540 1539 1539 1539 1538 1538 1538 1537 1537
1535 1535 1535 1535 1536 1536 1536 1536 1537 1537 1538 1538 1538 1538 1538 1539 1539 1539 1539 1540 1540 1540 1540 1540 1540 1539 1539 1538 1538 1538 1537 1537 1537 1536 1536 1536 1535 1535
1532 1533 1533 1533 1533 1533 1533 1533 1534 1534 1535 1536 1535 1536 1536 1536 1536 1537 1537 1538 1538 1538 1538 1538 1538 1537 1537 1536 1536 1535 1535 1535 1535 1534 1534 1533 1533 1532
1530 1530 1530 1530 1530 1530 1530 1531 1531 1531 1532 1532 1533 1533 1533 1534 1534 1534 1535 1535 1536 1535 1535 1535 1535 1535 1535 1534 1533 1533 1532 1532 1532 1531 1531 1531 1530 1530
1527 1527 1527 1527 1527 1527 1528 1528 1528 1528 1529 1529 1529 1529 1530 1530 1530 1531 1531 1532 1532 1532 1532 1533 1532 1532 1532 1531 1531 1530 1530 1529 1529 1528 1528 1527 1527 1526
1524 1524 1524 1524 1524 1524 1525 1525 1525 1526 1526 1526 1526 1526 1526 1526 1527 1528 1528 1529 1529 1530 1529 1529 1529 1529 1529 1528 1528 1527 1527 1526 1526 1525 1525 1524 1524 1523
1521 1521 1521 1521 1521 1521 1521 1522 1522 1523 1523 1523 1523 1523 1523 1523 1523 1524 1524 1525 1526 1526 1526 1525 1526 1526 1526 1525 1524 1524 1523 1523 1522 1521 1521 1521 1520 1519
1518 1518 1518 1518 1518 1518 1518 1518 1518 1519 1519 1520 1520 1519 1519 1519 1520 1520 1520 1521 1521 1522 1521 1521 1522 1522 1522 1522 1521 1520 1519 1519 1518 1518 1517 1516 1516 1515
1515 1515 1515 1515 1514 1514 1514 1514 1515 1515 1515 1515 1515 1515 1515 1515 1516 1516 1516 1516 1516 1516 1517 1517 1517 1517 1517 1517 1517 1516 1515 1515 1514 1514 1513 1512 1511 1511
1511 1511 1511 1511 1511 1510 1510 1510 1510 1511 1511 1511 1511 1511 1511 1511 1511 1511 1511 1511 1511 1511 1512 1512 1512 1512 1512 1512 1512 1511 1511 1510 1509 1509 1508 1508 1507 1506
1507 1507 1507 1507 1507 1507 1506 1506 1506 1506 1506 1506 1507 1506 1506 1506 1506 1507 1507 1507 1507 1506 1506 1506 1506 1507 1507 1507 1506 1505 1505 1505 1504 1504 1503 1502 1501 1501
1503 1503 1503 1503 1503 1503 1502 1502 1502 1502 1502 1502 1502 1502 1501 1502 1502 1502 1502 1502 1501 1501 1501 1501 1501 1501 1501 1500 1500 1499 1499 1499 1499 1498 1497 1497 1495 1495
1499 1498 1498 1498 1498 1498 1498 1498 1497 1497 1497 1497 1497 1497 1497 1497 1497 1497 1496 1496 1496 1496 1496 1496 1496 1496 1496 1495 1494 1494 1493 1493 1493 1492 1491 1490 1490 1489
1493 1493 1493 1493 1493 1493 1493 1492 1492 1492 1492 1492 1492 1492 1491 1491 1491 1491 1491 1491 1491 1491 1491 1490 1490 1489 1489 1489 1489 1487 1487 1487 1486 1486 1485 1485 1484 1483
1488 1488 1488 1488 1488 1488 1487 1487 1487 1487 1486 1486 1486 1486 1486 1486 1485 1485 1485 1485 1485 1485 1485 1484 1483 1484 1483 1483 1482 1481 1481 1480 1480 1480 1479 1479 1477 1477
1483 1483 1483 1483 1483 1482 1482 1482 1481 1481 1480 1480 1480 1480 1480 1480 1479 1479 1479 1479 1479 1479 1478 1478 1478 1477 1477 1476 1475 1475 1475 1474 1473 1473 1473 1472 1471 1470
1478 1478 1477 1477 1477 1477 1476 1476 1475 1475 1475 1474 1474 1473 1473 1473 1473 1473 1473 1473 1473 1472 1472 1472 1471 1471 1470 1470 1469 1469 1468 1468 1467 1467 1466 1465 1465 1465